Lincoln Lakeshore

*Note: All times are displayed in the local standard time of the station location.
**Rain - Equipment is designed to accurately record liquid precipitation; under conditions when precipitation is not in liquid form, the data displayed may not properly reflect rainfall values.

Date Max Temp
(°C)
Min Temp
(°C)
Avg Temp
(°C)
Rain (mm) Avg RH (%)
Sun, Dec 10, 2017 -1.0 -2.6 -1.8 0.0 63.1
Sat, Dec 09, 2017 2.0 -2.7 -0.1 0.0 53.4
Fri, Dec 08, 2017 0.3 -4.2 -1.4 0.0 51.3
Thu, Dec 07, 2017 1.5 -3.2 -0.5 0.0 53.3
Wed, Dec 06, 2017 4.2 -0.9 1.7 0.0 43.4
Tue, Dec 05, 2017 11.9 0.9 8.0 6.6 65.1
Mon, Dec 04, 2017 11.5 -3.9 4.8 0.4 71.9
DateTime Avg Temp (°C) Rain (mm) RH (%)
Mon, Dec 11, 2017 02:00 -2.0 0.0 76.8
Mon, Dec 11, 2017 01:00 -1.5 0.0 71.8
Mon, Dec 11, 2017 00:00 -1.6 0.0 63.3
Sun, Dec 10, 2017 23:00 -2.1 0.0 64.5
Sun, Dec 10, 2017 22:00 -2.1 0.0 62.8
Sun, Dec 10, 2017 21:00 -2.0 0.0 61.3
Sun, Dec 10, 2017 20:00 -2.0 0.0 60.0
Sun, Dec 10, 2017 19:00 -1.9 0.0 60.0
Sun, Dec 10, 2017 18:00 -1.6 0.0 59.5
Sun, Dec 10, 2017 17:00 -1.1 0.0 54.3
Sun, Dec 10, 2017 16:00 -1.1 0.0 56.3
Sun, Dec 10, 2017 15:00 -1.0 0.0 57.0
Sun, Dec 10, 2017 14:00 -1.1 0.0 56.8
Sun, Dec 10, 2017 13:00 -1.3 0.0 59.8
Sun, Dec 10, 2017 12:00 -1.3 0.0 56.0
Sun, Dec 10, 2017 11:00 -1.6 0.0 54.0
Sun, Dec 10, 2017 10:00 -2.1 0.0 55.5
Sun, Dec 10, 2017 09:00 -2.4 0.0 56.3
Sun, Dec 10, 2017 08:00 -2.4 0.0 55.3
Sun, Dec 10, 2017 07:00 -2.1 0.0 64.0
Sun, Dec 10, 2017 06:00 -2.1 0.0 68.5
Sun, Dec 10, 2017 05:00 -1.6 0.0 73.3
Sun, Dec 10, 2017 04:00 -1.8 0.0 79.0
Sun, Dec 10, 2017 03:00 -1.9 0.0 78.3
Sun, Dec 10, 2017 02:00 -2.1 0.0 80.3
Sun, Dec 10, 2017 01:00 -2.0 0.0 80.0
Sun, Dec 10, 2017 00:00 -2.0 0.0 81.3
Sat, Dec 09, 2017 23:00 -2.5 0.0 83.3
Sat, Dec 09, 2017 22:00 -2.2 0.0 80.3
Sat, Dec 09, 2017 21:00 -1.5 0.0 74.5
Sat, Dec 09, 2017 20:00 -0.6 0.0 63.0
Sat, Dec 09, 2017 19:00 0.2 0.0 52.0
Sat, Dec 09, 2017 18:00 0.2 0.0 49.3
Sat, Dec 09, 2017 17:00 0.6 0.0 47.0
Sat, Dec 09, 2017 16:00 1.6 0.0 42.0
Sat, Dec 09, 2017 15:00 1.4 0.0 40.8
Sat, Dec 09, 2017 14:00 1.3 0.0 40.8
Sat, Dec 09, 2017 13:00 1.1 0.0 42.5
Sat, Dec 09, 2017 12:00 1.4 0.0 38.5
Sat, Dec 09, 2017 11:00 1.6 0.0 40.3
Sat, Dec 09, 2017 10:00 1.0 0.0 50.0
Sat, Dec 09, 2017 09:00 -0.5 0.0 59.0
Sat, Dec 09, 2017 08:00 0.1 0.0 60.8
Sat, Dec 09, 2017 07:00 0.3 0.0 63.0
Sat, Dec 09, 2017 06:00 -0.3 0.0 52.3
Sat, Dec 09, 2017 05:00 -0.5 0.0 45.3
Sat, Dec 09, 2017 04:00 -0.6 0.0 45.8
Sat, Dec 09, 2017 03:00 -0.4 0.0 43.5


asterix Register now to access more data! asterix